| time (UTC) | temp F | wind direction | speed MPH | gust MPH | rain 1hr in | rain 24hr in | rain mn in | humidity % | barometer mb |
| 20260509211551 | 86 | 0 | 1.0 | 5.0 | 0.00 | 0.05 | 0.00 | 37 | 1009.3 |
| 20260509210056 | 85 | 0 | 0.0 | 7.0 | 0.00 | 0.05 | 0.00 | 38 | 1009.5 |
| 20260509204553 | 86 | 207 | 1.0 | 3.0 | 0.00 | 0.05 | 0.00 | 37 | 1009.6 |
| 20260509203055 | 86 | 0 | 1.0 | 4.0 | 0.00 | 0.05 | 0.00 | 35 | 1009.8 |
| 20260509201553 | 87 | 0.0 | 0.0 | 0.00 | 0.05 | 0.00 | 36 | 1009.9 | |
| 20260509200111 | 87 | 0.0 | 0.0 | 0.00 | 0.05 | 0.00 | 34 | 1010.2 | |
| 20260509194556 | 87 | 0.0 | 0.0 | 0.00 | 0.05 | 0.00 | 36 | 1010.4 | |
| 20260509193055 | 86 | 0.0 | 0.0 | 0.00 | 0.05 | 0.00 | 32 | 1010.6 | |
| 20260509191553 | 87 | 0.0 | 0.0 | 0.00 | 0.05 | 0.00 | 34 | 1010.8 | |
| 20260509190054 | 87 | 0.0 | 0.0 | 0.00 | 0.05 | 0.00 | 34 | 1011.0 | |
| 20260509184553 | 86 | 0.0 | 0.0 | 0.00 | 0.05 | 0.00 | 37 | 1011.2 | |
| 20260509183108 | 85 | 0.0 | 0.0 | 0.00 | 0.05 | 0.00 | 41 | 1011.5 | |
| 20260509181558 | 85 | 0.0 | 0.0 | 0.00 | 0.05 | 0.00 | 45 | 1011.5 | |
| 20260509180055 | 85 | 0.0 | 0.0 | 0.00 | 0.05 | 0.00 | 44 | 1011.8 | |
| 20260509174552 | 84 | 0.0 | 0.0 | 0.00 | 0.05 | 0.00 | 44 | 1011.9 | |
| 20260509173057 | 83 | 0.0 | 0.0 | 0.00 | 0.05 | 0.00 | 49 | 1012.1 | |
| 20260509171556 | 82 | 0.0 | 0.0 | 0.00 | 0.05 | 0.00 | 55 | 1012.1 | |
| 20260509170053 | 81 | 187 | 2.0 | 0.0 | 0.00 | 0.05 | 0.00 | 54 | 1012.1 |
| 20260509164555 | 80 | 0 | 0.0 | 0.0 | 0.00 | 0.05 | 0.00 | 55 | 1012.5 |
| 20260509163056 | 78 | 0 | 0.0 | 0.0 | 0.00 | 0.05 | 0.00 | 58 | 1012.7 |
| 20260509161551 | 78 | 0.0 | 0.0 | 0.00 | 0.05 | 0.00 | 62 | 1012.8 | |
| 20260509160055 | 76 | 0 | 0.0 | 0.0 | 0.00 | 0.05 | 0.00 | 65 | 1012.5 |
| 20260509154555 | 75 | 0 | 0.0 | 0.0 | 0.00 | 0.05 | 0.00 | 69 | 1012.5 |
| 20260509153055 | 75 | 0 | 0.0 | 0.0 | 0.00 | 0.05 | 0.00 | 66 | 1012.3 |
| 20260509151556 | 72 | 0 | 0.0 | 0.0 | 0.00 | 0.05 | 0.00 | 77 | 1012.5 |
| 20260509150052 | 68 | 0 | 0.0 | 0.0 | 0.00 | 0.05 | 0.00 | 87 | 1012.2 |
| 20260509144556 | 65 | 0 | 0.0 | 0.0 | 0.00 | 0.05 | 0.00 | 93 | 1012.3 |
| 20260509143101 | 63 | 0 | 0.0 | 0.0 | 0.00 | 0.05 | 0.00 | 95 | 1012.6 |
| 20260509141600 | 62 | 0 | 0.0 | 0.0 | 0.00 | 0.05 | 0.00 | 95 | 1012.5 |
| 20260509134551 | 58 | 0 | 0.0 | 0.0 | 0.00 | 0.05 | 0.00 | 95 | 1012.2 |
| 20260509133051 | 57 | 0 | 0.0 | 0.0 | 0.00 | 0.05 | 0.00 | 95 | 1012.2 |
| 20260509131552 | 54 | 0 | 0.0 | 0.0 | 0.00 | 0.05 | 0.00 | 95 | 1012.1 |
| 20260509130052 | 52 | 0 | 0.0 | 0.0 | 0.00 | 0.05 | 0.00 | 95 | 1011.7 |
| 20260509124554 | 51 | 0 | 0.0 | 0.0 | 0.00 | 0.05 | 0.00 | 94 | 1011.7 |
| 20260509123115 | 50 | 0 | 0.0 | 0.0 | 0.00 | 0.05 | 0.00 | 94 | 1011.6 |
| 20260509121558 | 49 | 0 | 0.0 | 0.0 | 0.00 | 0.05 | 0.00 | 94 | 1011.3 |
| 20260509120052 | 49 | 0 | 0.0 | 0.0 | 0.00 | 0.05 | 0.00 | 93 | 1011.1 |
| 20260509114549 | 49 | 0 | 0.0 | 0.0 | 0.00 | 0.05 | 0.00 | 93 | 1011.0 |
| 20260509113050 | 50 | 0 | 0.0 | 0.0 | 0.00 | 0.05 | 0.00 | 93 | 1010.7 |
| 20260509111552 | 50 | 0 | 0.0 | 0.0 | 0.00 | 0.05 | 0.00 | 94 | 1010.8 |
| 20260509110053 | 50 | 0 | 0.0 | 0.0 | 0.00 | 0.05 | 0.00 | 93 | 1010.7 |
| 20260509104552 | 50 | 0 | 0.0 | 0.0 | 0.00 | 0.05 | 0.00 | 93 | 1010.7 |
| 20260509103101 | 50 | 0 | 0.0 | 0.0 | 0.00 | 0.05 | 0.00 | 93 | 1010.9 |
| 20260509101553 | 51 | 0 | 0.0 | 0.0 | 0.00 | 0.05 | 0.00 | 93 | 1010.9 |
| 20260509100059 | 51 | 0 | 0.0 | 0.0 | 0.00 | 0.05 | 0.00 | 93 | 1011.2 |
| 20260509094554 | 52 | 0 | 0.0 | 0.0 | 0.00 | 0.05 | 0.00 | 93 | 1011.2 |
| 20260509093054 | 52 | 0 | 0.0 | 0.0 | 0.00 | 0.05 | 0.00 | 93 | 1011.3 |
| 20260509091553 | 52 | 0 | 0.0 | 0.0 | 0.00 | 0.05 | 0.00 | 93 | 1011.4 |
| 20260509090057 | 52 | 0 | 0.0 | 0.0 | 0.00 | 0.05 | 0.00 | 93 | 1011.2 |
| 20260509084554 | 52 | 0 | 0.0 | 0.0 | 0.00 | 0.05 | 0.00 | 93 | 1011.0 |
| 20260509083102 | 52 | 0 | 0.0 | 0.0 | 0.00 | 0.05 | 0.00 | 93 | 1011.2 |
| 20260509081556 | 53 | 0 | 0.0 | 0.0 | 0.00 | 0.05 | 0.00 | 93 | 1011.3 |
| 20260509080054 | 53 | 0 | 0.0 | 0.0 | 0.00 | 0.05 | 0.00 | 93 | 1011.5 |
| 20260509074606 | 54 | 0 | 0.0 | 0.0 | 0.00 | 0.05 | 0.00 | 93 | 1011.8 |
| 20260509073054 | 54 | 0 | 0.0 | 0.0 | 0.00 | 0.05 | 0.00 | 93 | 1011.8 |
| 20260509071607 | 54 | 0 | 0.0 | 0.0 | 0.00 | 0.05 | 0.00 | 93 | 1011.9 |
| 20260509070054 | 55 | 0 | 0.0 | 0.0 | 0.00 | 0.05 | 0.00 | 93 | 1011.8 |
| 20260509064557 | 55 | 0 | 0.0 | 0.0 | 0.00 | 0.05 | 0.00 | 93 | 1011.6 |
| 20260509063054 | 56 | 0 | 0.0 | 0.0 | 0.00 | 0.05 | 0.00 | 93 | 1011.8 |
| 20260509061601 | 57 | 0 | 0.0 | 0.0 | 0.00 | 0.05 | 0.00 | 93 | 1012.0 |
| 20260509060059 | 57 | 0 | 0.0 | 0.0 | 0.00 | 0.05 | 0.00 | 93 | 1012.1 |
| 20260509054607 | 57 | 0 | 0.0 | 0.0 | 0.00 | 0.05 | 0.00 | 93 | 1011.9 |
| 20260509053053 | 58 | 0 | 0.0 | 0.0 | 0.00 | 0.05 | 0.00 | 93 | 1011.9 |
| 20260509051603 | 58 | 0 | 0.0 | 0.0 | 0.00 | 0.05 | 0.00 | 93 | 1011.8 |
| 20260509050056 | 59 | 0 | 0.0 | 0.0 | 0.01 | 0.05 | 0.00 | 92 | 1011.7 |
| 20260509044552 | 59 | 0 | 0.0 | 0.0 | 0.01 | 0.05 | 0.05 | 93 | 1012.0 |
| 20260509043058 | 59 | 0 | 0.0 | 0.0 | 0.01 | 0.05 | 0.05 | 92 | 1012.0 |
| 20260509041554 | 59 | 0 | 0.0 | 0.0 | 0.01 | 0.05 | 0.05 | 92 | 1012.1 |
| 20260509040055 | 59 | 0 | 0.0 | 0.0 | 0.00 | 0.04 | 0.04 | 93 | 1012.0 |
| 20260509034553 | 59 | 0 | 0.0 | 0.0 | 0.00 | 0.04 | 0.04 | 92 | 1011.7 |
| 20260509033053 | 59 | 0 | 0.0 | 0.0 | 0.00 | 0.04 | 0.04 | 92 | 1011.2 |
| 20260509031617 | 59 | 0 | 0.0 | 0.0 | 0.00 | 0.04 | 0.04 | 91 | 1010.9 |
| 20260509030057 | 60 | 0 | 0.0 | 0.0 | 0.00 | 0.04 | 0.04 | 91 | 1010.2 |
| 20260509024549 | 60 | 0 | 0.0 | 0.0 | 0.00 | 0.04 | 0.04 | 91 | 1009.9 |
| 20260509023056 | 61 | 0 | 0.0 | 0.0 | 0.00 | 0.04 | 0.04 | 91 | 1009.9 |
| 20260509021550 | 61 | 0 | 0.0 | 0.0 | 0.00 | 0.04 | 0.04 | 90 | 1009.6 |
| 20260509020057 | 62 | 0 | 0.0 | 0.0 | 0.00 | 0.04 | 0.04 | 90 | 1009.5 |
| 20260509014556 | 63 | 0 | 0.0 | 0.0 | 0.00 | 0.04 | 0.04 | 90 | 1009.1 |
| 20260509013101 | 64 | 0 | 0.0 | 0.0 | 0.00 | 0.04 | 0.04 | 89 | 1008.6 |
| 20260509011553 | 65 | 0 | 0.0 | 0.0 | 0.00 | 0.04 | 0.04 | 89 | 1008.6 |
| 20260509010053 | 65 | 0 | 0.0 | 0.0 | 0.00 | 0.04 | 0.04 | 89 | 1008.7 |
| 20260509004555 | 66 | 0 | 0.0 | 1.0 | 0.00 | 0.04 | 0.04 | 88 | 1008.3 |
| 20260509003053 | 67 | 0 | 0.0 | 6.0 | 0.00 | 0.04 | 0.04 | 86 | 1007.8 |
| 20260509001551 | 68 | 0 | 0.0 | 2.0 | 0.00 | 0.04 | 0.04 | 88 | 1007.2 |
| 20260509000105 | 69 | 96 | 0.0 | 7.0 | 0.04 | 0.04 | 0.04 | 88 | 1007.1 |
| 20260508234603 | 70 | 0 | 0.0 | 1.0 | 0.04 | 0.04 | 0.04 | 90 | 1007.1 |
| 20260508233058 | 70 | 131 | 0.0 | 1.0 | 0.04 | 0.04 | 0.04 | 88 | 1006.4 |
| 20260508231551 | 72 | 0 | 0.0 | 3.0 | 0.04 | 0.04 | 0.04 | 81 | 1006.6 |
| 20260508224556 | 79 | 0 | 0.0 | 0.0 | 0.00 | 0.00 | 0.00 | 58 | 1007.2 |
| 20260508223054 | 81 | 136 | 1.0 | 6.0 | 0.00 | 0.00 | 0.00 | 53 | 1006.4 |
| 20260508221601 | 82 | 136 | 1.0 | 6.0 | 0.00 | 0.00 | 0.00 | 53 | 1006.4 |
| 20260508220056 | 82 | 132 | 2.0 | 8.0 | 0.00 | 0.00 | 0.00 | 53 | 1006.4 |
| 20260508214609 | 84 | 241 | 3.0 | 9.0 | 0.00 | 0.00 | 0.00 | 51 | 1006.6 |
| 20260508213101 | 83 | 132 | 2.0 | 0.0 | 0.00 | 0.00 | 0.00 | 51 | 1007.2 |